Weather History for Walnut Ridge, AR

Change the Weather History Date:

Friday, February 24, 2012

  Actual Average Record
Temperature  
Mean Temperature 48 °F -  
Max Temperature 53 °F 49 °F 68 °F (2001)
Min Temperature 42 °F 34 °F 28 °F (2003)
Degree Days  
Heating Degree Days 18    
Moisture  
Dew Point 25 °F    
Average Humidity 41    
Maximum Humidity 53    
Minimum Humidity 24    
Precipitation  
Precipitation 0.00 in - - ()
Sea Level Pressure  
Sea Level Pressure 29.97 in    
Wind  
Wind Speed 19 mph (WNW)    
Max Wind Speed 26 mph    
Max Gust Speed 33 mph    
Visibility 10 miles    
Events      
Averages and records for this station are not official NWS values.
T = Trace of Precipitation, MM = Missing Value Source: NWS Daily Summary

Daily Weather History Graph

Daily Weather History Graph

Search for Another Location

Airport:

Trip Planner

Search our weather history database for the weather conditions in past years. The results will help you decide how hot, cold, wet, or windy it might be!

Date:

Astronomy

Feb. 24, 2012 Rise Set
Actual Time 6:41 AM CST 5:53 PM CST
Civil Twilight 6:15 AM CST 6:19 PM CST
Nautical Twilight 5:45 AM CST 6:49 PM CST
Astronomical Twilight 5:15 AM CST 7:18 PM CST
Moon 7:42 AM CST (2/24) 8:49 PM CST (2/24)
Length of Visible Light 12h 04m
Length of Day
11h 12m
Waxing Crescent, 8% of the Moon is Illuminated
Feb 24
Waxing Crescent
Feb 29
First Quarter
Mar 8
Full
Mar 14
Last Quarter
Mar 22
New

Hourly Weather History & Observations

Time (CST) Temp. Windchill Dew Point Humidity Pressure Visibility Wind Dir Wind Speed Gust Speed Precip Events Conditions
12:15 AM 53.6 °F - 35.6 °F 51% 29.62 in 10.0 mi WNW 19.6 mph 28.8 mph N/A   Clear
12:35 AM 53.6 °F - 33.8 °F 47% 29.65 in 10.0 mi WNW 19.6 mph 31.1 mph N/A   Clear
12:55 AM 51.8 °F - 33.8 °F 50% 29.67 in 10.0 mi WNW 18.4 mph 25.3 mph N/A   Clear
1:15 AM 51.8 °F - 33.8 °F 50% 29.69 in 10.0 mi WNW 15.0 mph - N/A   Clear
1:35 AM 51.8 °F - 33.8 °F 50% 29.69 in 10.0 mi WNW 18.4 mph 24.2 mph N/A   Clear
1:55 AM 50.0 °F - 30.2 °F 47% 29.68 in 10.0 mi WNW 26.5 mph 32.2 mph N/A   Partly Cloudy
2:15 AM 50.0 °F - 30.2 °F 47% 29.69 in 10.0 mi WNW 18.4 mph - N/A   Mostly Cloudy
2:35 AM 48.2 °F - 30.2 °F 50% 29.70 in 10.0 mi WNW 16.1 mph 26.5 mph N/A   Overcast
2:55 AM 48.2 °F - 26.6 °F 43% 29.72 in 10.0 mi WNW 24.2 mph 27.6 mph N/A   Overcast
3:15 AM 48.2 °F - 26.6 °F 43% 29.73 in 10.0 mi West 17.3 mph 24.2 mph N/A   Overcast
3:35 AM 48.2 °F - 26.6 °F 43% 29.75 in 10.0 mi WNW 16.1 mph - N/A   Overcast
3:55 AM 46.4 °F 39.5 °F 28.4 °F 50% 29.76 in 10.0 mi WNW 17.3 mph 23.0 mph N/A   Scattered Clouds
4:15 AM 46.4 °F 39.5 °F 26.6 °F 46% 29.77 in 10.0 mi WNW 17.3 mph - N/A   Clear
4:35 AM 46.4 °F 38.1 °F 24.8 °F 43% 29.79 in 10.0 mi WNW 24.2 mph 31.1 mph N/A   Partly Cloudy
4:55 AM 46.4 °F 38.3 °F 24.8 °F 43% 29.80 in 10.0 mi WNW 23.0 mph 29.9 mph N/A   Scattered Clouds
5:15 AM 46.4 °F 37.7 °F 26.6 °F 46% 29.82 in 10.0 mi WNW 26.5 mph 33.4 mph N/A   Partly Cloudy
5:35 AM 44.6 °F 35.9 °F 28.4 °F 53% 29.83 in 10.0 mi WNW 23.0 mph 33.4 mph N/A   Clear
5:55 AM 44.6 °F 35.7 °F 28.4 °F 53% 29.84 in 10.0 mi WNW 24.2 mph 28.8 mph N/A   Partly Cloudy
6:15 AM 44.6 °F 35.3 °F 26.6 °F 49% 29.86 in 10.0 mi West 26.5 mph 29.9 mph N/A   Partly Cloudy
6:35 AM 42.8 °F 33.8 °F 26.6 °F 53% 29.88 in 10.0 mi WNW 21.9 mph 28.8 mph N/A   Clear
6:55 AM 42.8 °F 34.5 °F 26.6 °F 53% 29.90 in 10.0 mi WNW 18.4 mph 25.3 mph N/A   Clear
7:15 AM 42.8 °F 33.3 °F 26.6 °F 53% 29.92 in 10.0 mi WNW 24.2 mph 29.9 mph N/A   Clear
7:35 AM 42.8 °F 34.8 °F 26.6 °F 53% 29.94 in 10.0 mi West 17.3 mph 24.2 mph N/A   Clear
7:55 AM 42.8 °F 34.8 °F 26.6 °F 53% 29.95 in 10.0 mi WNW 17.3 mph 21.9 mph N/A   Clear
8:55 AM 44.6 °F 36.6 °F 26.6 °F 49% 30.00 in 10.0 mi West 19.6 mph 26.5 mph N/A   Scattered Clouds
9:15 AM 44.6 °F 35.9 °F 26.6 °F 49% 30.01 in 10.0 mi WNW 23.0 mph 31.1 mph N/A   Mostly Cloudy
9:35 AM 46.4 °F 37.9 °F 26.6 °F 46% 30.02 in 10.0 mi WNW 25.3 mph 31.1 mph N/A   Partly Cloudy
9:55 AM 46.4 °F 37.9 °F 26.6 °F 46% 30.04 in 10.0 mi WNW 25.3 mph 29.9 mph N/A   Partly Cloudy
10:15 AM 48.2 °F - 26.6 °F 43% 30.04 in 10.0 mi NW 26.5 mph 33.4 mph N/A   Partly Cloudy
10:35 AM 48.2 °F - 26.6 °F 43% 30.05 in 10.0 mi WNW 23.0 mph 31.1 mph N/A   Partly Cloudy
10:55 AM 46.4 °F 39.5 °F 26.6 °F 46% 30.06 in 10.0 mi WNW 17.3 mph 27.6 mph N/A   Mostly Cloudy
11:15 AM 48.2 °F - 26.6 °F 43% 30.06 in 10.0 mi WNW 17.3 mph 25.3 mph N/A   Mostly Cloudy
11:35 AM 48.2 °F - 26.6 °F 43% 30.07 in 10.0 mi WNW 24.2 mph - N/A   Partly Cloudy
11:55 AM 48.2 °F - 24.8 °F 40% 30.07 in 10.0 mi NW 24.2 mph 28.8 mph N/A   Clear
12:15 PM 50.0 °F - 24.8 °F 37% 30.07 in 10.0 mi West 19.6 mph 29.9 mph N/A   Clear
12:35 PM 51.8 °F - 24.8 °F 35% 30.07 in 10.0 mi West 19.6 mph 25.3 mph N/A   Clear
12:55 PM 51.8 °F - 24.8 °F 35% 30.07 in 10.0 mi West 17.3 mph 23.0 mph N/A   Clear
1:15 PM 51.8 °F - 23.0 °F 33% 30.06 in 10.0 mi WNW 23.0 mph 29.9 mph N/A   Partly Cloudy
1:35 PM 53.6 °F - 21.2 °F 28% 30.06 in 10.0 mi WNW 18.4 mph 21.9 mph N/A   Partly Cloudy
1:55 PM 53.6 °F - 23.0 °F 30% 30.07 in 10.0 mi West 18.4 mph 27.6 mph N/A   Scattered Clouds
2:15 PM 53.6 °F - 21.2 °F 28% 30.06 in 10.0 mi WNW 23.0 mph 28.8 mph N/A   Partly Cloudy
2:55 PM 53.6 °F - 21.2 °F 28% 30.07 in 10.0 mi WNW 18.4 mph - N/A   Clear
3:15 PM 53.6 °F - 17.6 °F 24% 30.08 in 10.0 mi WNW 19.6 mph 31.1 mph N/A   Clear
3:35 PM 53.6 °F - 17.6 °F 24% 30.08 in 10.0 mi WNW 23.0 mph 31.1 mph N/A   Clear
3:55 PM 53.6 °F - 19.4 °F 26% 30.09 in 10.0 mi NW 24.2 mph 31.1 mph N/A   Clear
4:15 PM 53.6 °F - 17.6 °F 24% 30.10 in 10.0 mi WNW 17.3 mph 27.6 mph N/A   Clear
4:35 PM 51.8 °F - 17.6 °F 26% 30.10 in 10.0 mi NW 19.6 mph 27.6 mph N/A   Clear
4:55 PM 51.8 °F - 15.8 °F 24% 30.11 in 10.0 mi WNW 17.3 mph - N/A   Clear
5:15 PM 51.8 °F - 17.6 °F 26% 30.12 in 10.0 mi WNW 19.6 mph 27.6 mph N/A   Clear
5:35 PM 50.0 °F - 17.6 °F 28% 30.13 in 10.0 mi WNW 16.1 mph - N/A   Clear
5:55 PM 48.2 °F - 17.6 °F 30% 30.13 in 10.0 mi WNW 17.3 mph 21.9 mph N/A   Clear
6:15 PM 48.2 °F - 17.6 °F 30% 30.15 in 10.0 mi WNW 17.3 mph 23.0 mph N/A   Clear
6:35 PM 46.4 °F 41.1 °F 19.4 °F 34% 30.16 in 10.0 mi WNW 11.5 mph 16.1 mph N/A   Clear
6:55 PM 46.4 °F 41.1 °F 19.4 °F 34% 30.17 in 10.0 mi West 11.5 mph 18.4 mph N/A   Clear
7:15 PM 44.6 °F 38.1 °F 19.4 °F 37% 30.18 in 10.0 mi WNW 13.8 mph - N/A   Clear
7:35 PM 44.6 °F 38.8 °F 19.4 °F 37% 30.19 in 10.0 mi WNW 11.5 mph - N/A   Clear
7:55 PM 44.6 °F 39.7 °F 19.4 °F 37% 30.19 in 10.0 mi WNW 9.2 mph - N/A   Clear
8:15 PM 42.8 °F 39.3 °F 21.2 °F 42% 30.20 in 10.0 mi West 5.8 mph - N/A   Clear
8:35 PM 44.6 °F 42.2 °F 19.4 °F 37% 30.21 in 10.0 mi West 4.6 mph - N/A   Clear
8:55 PM 42.8 °F 39.3 °F 19.4 °F 39% 30.22 in 10.0 mi West 5.8 mph - N/A   Clear
9:15 PM 41.0 °F 37.1 °F 19.4 °F 42% 30.22 in 10.0 mi West 5.8 mph - N/A   Clear
9:35 PM 41.0 °F 37.1 °F 21.2 °F 45% 30.22 in 10.0 mi WSW 5.8 mph - N/A   Clear
9:55 PM 41.0 °F 37.1 °F 19.4 °F 42% 30.23 in 10.0 mi WSW 5.8 mph - N/A   Clear
10:15 PM 39.2 °F 35.0 °F 21.2 °F 49% 30.23 in 10.0 mi WSW 5.8 mph - N/A   Clear
10:55 PM 37.4 °F 32.8 °F 21.2 °F 52% 30.23 in 10.0 mi SW 5.8 mph - N/A   Clear
11:15 PM 37.4 °F 32.1 °F 21.2 °F 52% 30.24 in 10.0 mi WSW 6.9 mph - N/A   Clear
11:35 PM 37.4 °F 31.4 °F 21.2 °F 52% 30.24 in 10.0 mi WSW 8.1 mph - N/A   Clear
11:55 PM 37.4 °F 31.4 °F 19.4 °F 48% 30.24 in 10.0 mi SW 8.1 mph - N/A   Clear